Time,TemperatureF,DewpointF,PressureIn,WindDirection,WindDirectionDegrees,WindSpeedMPH,WindSpeedGustMPH,Humidity,HourlyPrecipIn,Conditions,Clouds,dailyrainin,SoftwareType,DateUTC
2013-07-26 00:02:00,56.8,53.3,29.81,South,170,0.4,3.4,88,0.00,,,0.00,WUHU21623XXSP,2013-07-26 05:02:00,
2013-07-26 00:07:00,56.8,53.3,29.81,ESE,112,0.0,0.4,88,0.00,,,0.00,WUHU21623XXSP,2013-07-26 05:07:00,
2013-07-26 00:12:00,56.5,53.0,29.81,SSE,157,0.7,3.1,88,0.00,,,0.00,WUHU21623XXSP,2013-07-26 05:12:00,
2013-07-26 00:17:00,56.5,53.0,29.81,South,174,0.4,3.4,88,0.00,,,0.00,WUHU21623XXSP,2013-07-26 05:17:00,
2013-07-26 00:22:00,56.3,52.8,29.81,SSE,157,0.0,3.4,88,0.00,,,0.00,WUHU21623XXSP,2013-07-26 05:22:00,
2013-07-26 00:27:00,56.3,52.8,29.81,SSE,168,0.4,2.0,88,0.00,,,0.00,WUHU21623XXSP,2013-07-26 05:27:00,
2013-07-26 00:32:00,56.3,52.8,29.81,South,173,0.3,2.0,88,0.00,,,0.00,WUHU21623XXSP,2013-07-26 05:32:00,
2013-07-26 00:37:00,56.1,52.6,29.81,South,180,0.0,6.5,88,0.00,,,0.00,WUHU21623XXSP,2013-07-26 05:37:00,
2013-07-26 00:42:00,56.1,52.6,29.81,SSE,157,0.2,6.5,88,0.00,,,0.00,WUHU21623XXSP,2013-07-26 05:42:00,
2013-07-26 00:47:00,56.1,52.6,29.81,SE,135,0.0,6.7,88,0.00,,,0.00,WUHU21623XXSP,2013-07-26 05:47:00,
2013-07-26 00:52:00,56.1,52.6,29.81,SSE,157,0.0,6.7,88,0.00,,,0.00,WUHU21623XXSP,2013-07-26 05:52:00,
2013-07-26 00:57:00,55.9,52.4,29.81,ENE,67,0.0,2.0,88,0.00,,,0.00,WUHU21623XXSP,2013-07-26 05:57:00,
2013-07-26 01:02:00,56.3,52.8,29.81,ENE,67,0.0,1.8,88,0.00,,,0.00,WUHU21623XXSP,2013-07-26 06:02:00,
2013-07-26 01:07:00,55.9,52.4,29.81,SSE,164,0.2,0.3,88,0.00,,,0.00,WUHU21623XXSP,2013-07-26 06:07:00,
2013-07-26 01:12:00,55.9,52.4,29.80,SSE,162,0.2,2.0,88,0.00,,,0.00,WUHU21623XXSP,2013-07-26 06:12:00,
2013-07-26 01:17:00,55.8,52.3,29.81,SSE,162,0.2,2.0,88,0.00,,,0.00,WUHU21623XXSP,2013-07-26 06:17:00,
2013-07-26 01:22:00,55.8,52.3,29.81,SSE,161,0.1,0.7,88,0.00,,,0.00,WUHU21623XXSP,2013-07-26 06:22:00,
2013-07-26 01:27:00,55.8,52.2,29.81,SSE,157,0.0,0.7,88,0.00,,,0.00,WUHU21623XXSP,2013-07-26 06:27:00,
2013-07-26 01:32:00,55.8,52.3,29.81,SSE,160,0.1,0.1,88,0.00,,,0.00,WUHU21623XXSP,2013-07-26 06:32:00,
2013-07-26 01:37:00,55.9,52.4,29.80,SSE,160,0.0,0.1,88,0.00,,,0.00,WUHU21623XXSP,2013-07-26 06:37:00,
2013-07-26 01:42:00,55.9,52.4,29.80,SSE,157,0.0,0.1,88,0.00,,,0.00,WUHU21623XXSP,2013-07-26 06:42:00,
2013-07-26 01:47:00,55.8,52.3,29.80,SSE,161,0.0,0.0,88,0.00,,,0.00,WUHU21623XXSP,2013-07-26 06:47:00,
2013-07-26 01:52:00,55.9,52.4,29.80,SSE,157,0.0,1.3,88,0.00,,,0.00,WUHU21623XXSP,2013-07-26 06:52:00,
2013-07-26 01:57:00,55.9,52.4,29.80,SSE,158,0.0,1.3,88,0.00,,,0.00,WUHU21623XXSP,2013-07-26 06:57:00,
2013-07-26 02:02:00,55.9,52.4,29.80,SSE,157,0.1,0.1,88,0.00,,,0.00,WUHU21623XXSP,2013-07-26 07:02:00,
2013-07-26 02:07:00,55.9,52.4,29.80,SSE,157,0.0,1.1,88,0.00,,,0.00,WUHU21623XXSP,2013-07-26 07:07:00,
2013-07-26 02:12:00,55.9,52.4,29.80,SSE,157,0.1,1.1,88,0.00,,,0.00,WUHU21623XXSP,2013-07-26 07:12:00,
2013-07-26 02:17:00,56.1,52.6,29.79,SSE,157,0.0,0.4,88,0.00,,,0.00,WUHU21623XXSP,2013-07-26 07:17:00,
2013-07-26 02:22:00,56.1,52.6,29.79,SSE,157,0.0,0.4,88,0.00,,,0.00,WUHU21623XXSP,2013-07-26 07:22:00,
2013-07-26 02:27:00,56.5,53.0,29.79,SSE,157,0.0,0.0,88,0.00,,,0.00,WUHU21623XXSP,2013-07-26 07:27:00,
2013-07-26 02:33:00,56.5,53.0,29.79,SSE,157,0.0,0.0,88,0.00,,,0.00,WUHU21623XXSP,2013-07-26 07:33:00,
2013-07-26 02:38:00,56.5,53.0,29.79,SSE,157,0.0,0.0,88,0.00,,,0.00,WUHU21623XXSP,2013-07-26 07:38:00,
2013-07-26 02:43:00,56.3,52.8,29.80,SSE,157,0.0,0.0,88,0.00,,,0.00,WUHU21623XXSP,2013-07-26 07:43:00,
2013-07-26 02:48:00,56.1,52.6,29.80,SSE,157,0.0,0.0,88,0.00,,,0.00,WUHU21623XXSP,2013-07-26 07:48:00,
2013-07-26 02:53:00,56.1,52.6,29.80,SSE,157,0.0,0.0,88,0.00,,,0.00,WUHU21623XXSP,2013-07-26 07:53:00,
2013-07-26 02:58:00,56.1,52.6,29.79,SSE,157,0.0,0.0,88,0.00,,,0.00,WUHU21623XXSP,2013-07-26 07:58:00,
2013-07-26 03:03:00,56.1,52.6,29.79,SSE,157,0.0,0.0,88,0.00,,,0.00,WUHU21623XXSP,2013-07-26 08:03:00,
2013-07-26 03:08:00,56.1,52.6,29.79,SSE,157,0.0,0.0,88,0.00,,,0.00,WUHU21623XXSP,2013-07-26 08:08:00,
2013-07-26 03:13:00,56.1,52.6,29.79,SSE,157,0.0,0.0,88,0.00,,,0.00,WUHU21623XXSP,2013-07-26 08:13:00,
2013-07-26 03:18:00,55.9,52.4,29.79,South,180,0.0,1.1,88,0.00,,,0.00,WUHU21623XXSP,2013-07-26 08:18:00,
2013-07-26 03:23:00,56.1,52.6,29.79,South,180,0.0,1.1,88,0.00,,,0.00,WUHU21623XXSP,2013-07-26 08:23:00,
2013-07-26 03:28:00,56.1,52.6,29.79,South,180,0.0,0.7,88,0.00,,,0.00,WUHU21623XXSP,2013-07-26 08:28:00,
2013-07-26 03:33:00,56.1,52.6,29.79,South,180,0.0,0.2,88,0.00,,,0.00,WUHU21623XXSP,2013-07-26 08:33:00,
2013-07-26 03:38:00,56.3,52.8,29.80,South,180,0.0,0.0,88,0.00,,,0.00,WUHU21623XXSP,2013-07-26 08:38:00,
2013-07-26 03:43:00,56.3,52.8,29.79,South,180,0.0,0.0,88,0.00,,,0.00,WUHU21623XXSP,2013-07-26 08:43:00,
2013-07-26 03:48:00,56.5,53.0,29.80,WNW,292,0.0,2.0,88,0.00,,,0.00,WUHU21623XXSP,2013-07-26 08:48:00,
2013-07-26 03:53:00,56.5,53.0,29.80,WNW,292,0.0,2.0,88,0.00,,,0.00,WUHU21623XXSP,2013-07-26 08:53:00,
2013-07-26 03:58:00,56.3,52.8,29.80,WNW,292,0.0,0.0,88,0.00,,,0.00,WUHU21623XXSP,2013-07-26 08:58:00,
2013-07-26 04:03:00,56.3,52.8,29.80,WNW,292,0.0,0.0,88,0.00,,,0.00,WUHU21623XXSP,2013-07-26 09:03:00,
2013-07-26 04:08:00,56.5,53.0,29.80,WNW,292,0.0,0.0,88,0.00,,,0.00,WUHU21623XXSP,2013-07-26 09:08:00,
2013-07-26 04:13:00,56.3,52.8,29.80,NW,315,0.0,0.0,88,0.00,,,0.00,WUHU21623XXSP,2013-07-26 09:13:00,
2013-07-26 04:18:00,56.5,53.0,29.79,WNW,292,0.0,1.1,88,0.00,,,0.00,WUHU21623XXSP,2013-07-26 09:18:00,
2013-07-26 04:23:00,56.3,52.8,29.79,SW,225,0.0,1.3,88,0.00,,,0.00,WUHU21623XXSP,2013-07-26 09:23:00,
2013-07-26 04:28:00,56.3,52.8,29.79,SW,225,0.0,1.3,88,0.00,,,0.00,WUHU21623XXSP,2013-07-26 09:28:00,
2013-07-26 04:33:00,55.9,52.4,29.78,SW,225,0.0,2.0,88,0.00,,,0.00,WUHU21623XXSP,2013-07-26 09:33:00,
2013-07-26 04:38:00,56.1,52.6,29.79,SW,225,0.0,2.0,88,0.00,,,0.00,WUHU21623XXSP,2013-07-26 09:38:00,
2013-07-26 04:43:00,55.9,52.4,29.79,SSW,202,0.0,0.7,88,0.00,,,0.00,WUHU21623XXSP,2013-07-26 09:43:00,
2013-07-26 04:48:00,55.9,52.4,29.79,East,90,0.0,1.8,88,0.00,,,0.00,WUHU21623XXSP,2013-07-26 09:48:00,
2013-07-26 04:53:00,55.9,52.4,29.79,East,90,0.0,1.8,88,0.00,,,0.00,WUHU21623XXSP,2013-07-26 09:53:00,
2013-07-26 04:58:00,55.9,52.4,29.79,ESE,112,0.0,0.1,88,0.00,,,0.00,WUHU21623XXSP,2013-07-26 09:58:00,
2013-07-26 05:03:00,55.9,52.4,29.79,ESE,112,0.0,0.1,88,0.00,,,0.00,WUHU21623XXSP,2013-07-26 10:03:00,
2013-07-26 05:08:00,55.9,52.4,29.79,East,90,0.0,0.0,88,0.00,,,0.00,WUHU21623XXSP,2013-07-26 10:08:00,
2013-07-26 05:13:00,55.9,52.4,29.79,East,90,0.0,0.0,88,0.00,,,0.00,WUHU21623XXSP,2013-07-26 10:13:00,
2013-07-26 05:18:00,55.9,52.4,29.79,East,90,0.0,0.0,88,0.00,,,0.00,WUHU21623XXSP,2013-07-26 10:18:00,
2013-07-26 05:23:00,55.9,52.4,29.79,East,90,0.0,0.0,88,0.00,,,0.00,WUHU21623XXSP,2013-07-26 10:23:00,
2013-07-26 05:28:00,55.9,52.4,29.79,East,90,0.0,0.0,88,0.00,,,0.00,WUHU21623XXSP,2013-07-26 10:28:00,
2013-07-26 05:33:00,55.9,52.4,29.80,East,90,0.0,0.0,88,0.00,,,0.00,WUHU21623XXSP,2013-07-26 10:33:00,
2013-07-26 05:38:00,55.8,52.2,29.80,East,90,0.0,0.0,88,0.00,,,0.00,WUHU21623XXSP,2013-07-26 10:38:00,
2013-07-26 05:43:00,55.8,52.2,29.80,East,90,0.0,0.0,88,0.00,,,0.00,WUHU21623XXSP,2013-07-26 10:43:00,
2013-07-26 05:48:00,55.9,52.4,29.80,East,90,0.0,0.0,88,0.00,,,0.00,WUHU21623XXSP,2013-07-26 10:48:00,
2013-07-26 05:53:00,56.1,52.6,29.80,East,90,0.0,0.0,88,0.00,,,0.00,WUHU21623XXSP,2013-07-26 10:53:00,
2013-07-26 05:58:00,56.1,52.6,29.80,ENE,67,0.0,0.0,88,0.00,,,0.00,WUHU21623XXSP,2013-07-26 10:58:00,
2013-07-26 06:03:00,56.3,52.8,29.80,WNW,292,6.7,6.7,88,0.00,,,0.00,WUHU21623XXSP,2013-07-26 11:03:00,
2013-07-26 06:08:00,55.9,52.4,29.80,WNW,292,0.0,6.7,88,0.00,,,0.00,WUHU21623XXSP,2013-07-26 11:08:00,
2013-07-26 06:13:00,55.8,52.2,29.80,WNW,292,2.2,5.8,88,0.00,,,0.00,WUHU21623XXSP,2013-07-26 11:13:00,
2013-07-26 06:18:00,55.4,51.9,29.80,WNW,292,3.6,5.8,88,0.00,,,0.00,WUHU21623XXSP,2013-07-26 11:18:00,
2013-07-26 06:23:00,55.0,51.5,29.81,WNW,292,0.0,4.0,88,0.00,,,0.00,WUHU21623XXSP,2013-07-26 11:23:00,
2013-07-26 06:28:00,54.3,50.5,29.81,NNE,22,0.0,6.7,87,0.02,,,0.02,WUHU21623XXSP,2013-07-26 11:28:00,
2013-07-26 06:33:00,53.8,50.0,29.80,NNE,22,0.0,6.7,87,0.06,,,0.06,WUHU21623XXSP,2013-07-26 11:33:00,
2013-07-26 06:38:00,53.4,49.6,29.80,ESE,112,0.0,6.5,87,0.10,,,0.10,WUHU21623XXSP,2013-07-26 11:38:00,
2013-07-26 06:43:00,53.2,49.4,29.80,SE,135,0.9,6.0,87,0.16,,,0.16,WUHU21623XXSP,2013-07-26 11:43:00,
2013-07-26 06:48:00,53.1,49.6,29.80,WSW,247,2.0,6.0,88,0.20,,,0.20,WUHU21623XXSP,2013-07-26 11:48:00,
2013-07-26 06:53:00,52.9,49.4,29.80,NNE,22,0.0,5.8,88,0.22,,,0.22,WUHU21623XXSP,2013-07-26 11:53:00,
2013-07-26 06:58:00,52.9,49.4,29.82,SE,135,0.0,7.8,88,0.22,,,0.22,WUHU21623XXSP,2013-07-26 11:58:00,
2013-07-26 07:03:00,52.7,49.2,29.82,WNW,292,0.0,7.8,88,0.24,,,0.24,WUHU21623XXSP,2013-07-26 12:03:00,
2013-07-26 07:08:00,52.9,49.4,29.82,NNW,337,0.0,7.2,88,0.24,,,0.24,WUHU21623XXSP,2013-07-26 12:08:00,
2013-07-26 07:13:00,52.9,49.4,29.82,SW,225,1.6,6.9,88,0.24,,,0.24,WUHU21623XXSP,2013-07-26 12:13:00,
2013-07-26 07:18:00,52.9,49.4,29.82,NNE,22,0.9,3.1,88,0.24,,,0.24,WUHU21623XXSP,2013-07-26 12:18:00,
2013-07-26 07:23:00,52.7,49.2,29.82,West,270,1.1,4.0,88,0.24,,,0.24,WUHU21623XXSP,2013-07-26 12:23:00,
2013-07-26 07:28:00,52.5,49.0,29.83,East,90,2.5,8.3,88,0.24,,,0.26,WUHU21623XXSP,2013-07-26 12:28:00,
2013-07-26 07:33:00,52.5,49.0,29.83,East,90,4.0,8.3,88,0.20,,,0.26,WUHU21623XXSP,2013-07-26 12:33:00,
2013-07-26 07:38:00,52.5,49.0,29.83,NE,35,0.8,6.5,88,0.16,,,0.26,WUHU21623XXSP,2013-07-26 12:38:00,
2013-07-26 07:43:00,52.3,49.2,29.83,SW,225,0.0,8.5,89,0.08,,,0.26,WUHU21623XXSP,2013-07-26 12:43:00,
2013-07-26 07:48:00,52.5,49.0,29.83,West,270,0.0,8.5,88,0.08,,,0.28,WUHU21623XXSP,2013-07-26 12:48:00,
2013-07-26 07:53:00,52.5,49.3,29.84,West,270,0.0,1.3,89,0.06,,,0.28,WUHU21623XXSP,2013-07-26 12:53:00,
2013-07-26 07:58:00,52.3,49.1,29.84,NW,312,0.3,4.3,89,0.08,,,0.30,WUHU21623XXSP,2013-07-26 12:58:00,
2013-07-26 08:03:00,52.2,49.0,29.84,West,270,0.0,6.0,89,0.06,,,0.30,WUHU21623XXSP,2013-07-26 13:03:00,
2013-07-26 08:08:00,52.2,49.0,29.85,NW,315,1.1,8.7,89,0.06,,,0.30,WUHU21623XXSP,2013-07-26 13:08:00,
2013-07-26 08:13:00,52.2,49.0,29.85,WSW,247,0.0,8.7,89,0.08,,,0.32,WUHU21623XXSP,2013-07-26 13:13:00,
2013-07-26 08:18:00,52.2,49.0,29.85,NW,315,0.0,6.3,89,0.08,,,0.32,WUHU21623XXSP,2013-07-26 13:18:00,
2013-07-26 08:23:00,52.2,49.0,29.85,NW,315,0.9,4.5,89,0.08,,,0.32,WUHU21623XXSP,2013-07-26 13:23:00,
2013-07-26 08:28:00,52.0,48.8,29.86,WSW,247,0.0,6.9,89,0.06,,,0.32,WUHU21623XXSP,2013-07-26 13:28:00,
2013-07-26 08:33:00,52.2,49.0,29.86,NNW,327,1.2,6.9,89,0.06,,,0.32,WUHU21623XXSP,2013-07-26 13:33:00,
2013-07-26 08:38:00,51.6,48.1,29.86,NW,315,0.0,5.1,88,0.06,,,0.32,WUHU21623XXSP,2013-07-26 13:38:00,
2013-07-26 08:43:00,51.6,48.1,29.86,NNW,337,0.0,5.8,88,0.06,,,0.32,WUHU21623XXSP,2013-07-26 13:43:00,
2013-07-26 08:48:00,51.6,48.1,29.86,North,0,0.2,12.8,88,0.04,,,0.32,WUHU21623XXSP,2013-07-26 13:48:00,
2013-07-26 08:53:00,51.4,47.9,29.87,North,0,1.8,12.8,88,0.04,,,0.32,WUHU21623XXSP,2013-07-26 13:53:00,
2013-07-26 08:58:00,51.4,47.9,29.87,NNE,22,2.0,8.7,88,0.04,,,0.34,WUHU21623XXSP,2013-07-26 13:58:00,
2013-07-26 09:03:00,51.4,47.9,29.87,WNW,292,0.0,8.1,88,0.04,,,0.34,WUHU21623XXSP,2013-07-26 14:03:00,
2013-07-26 09:08:00,51.4,47.9,29.87,North,0,5.4,8.1,88,0.04,,,0.34,WUHU21623XXSP,2013-07-26 14:08:00,
2013-07-26 09:13:00,51.6,48.1,29.88,North,0,0.0,7.6,88,0.02,,,0.34,WUHU21623XXSP,2013-07-26 14:13:00,
2013-07-26 09:18:00,51.3,47.8,29.88,WNW,292,0.0,6.5,88,0.02,,,0.34,WUHU21623XXSP,2013-07-26 14:18:00,
2013-07-26 09:23:00,51.4,47.9,29.88,NW,315,0.9,4.3,88,0.02,,,0.34,WUHU21623XXSP,2013-07-26 14:23:00,
2013-07-26 09:28:00,51.6,48.1,29.88,East,90,0.0,4.3,88,0.04,,,0.36,WUHU21623XXSP,2013-07-26 14:28:00,
2013-07-26 09:33:00,51.6,48.1,29.88,WNW,292,0.7,8.3,88,0.04,,,0.36,WUHU21623XXSP,2013-07-26 14:33:00,
2013-07-26 09:38:00,51.4,47.9,29.88,ENE,67,0.0,8.3,88,0.04,,,0.36,WUHU21623XXSP,2013-07-26 14:38:00,
2013-07-26 09:43:00,51.4,47.9,29.89,NW,315,2.0,5.1,88,0.06,,,0.38,WUHU21623XXSP,2013-07-26 14:43:00,
2013-07-26 09:48:00,51.4,47.9,29.89,SSE,157,2.0,5.6,88,0.06,,,0.38,WUHU21623XXSP,2013-07-26 14:48:00,
2013-07-26 09:53:00,51.6,48.1,29.89,North,0,6.3,6.3,88,0.04,,,0.38,WUHU21623XXSP,2013-07-26 14:53:00,
2013-07-26 09:58:00,51.6,48.1,29.89,WNW,292,0.0,6.3,88,0.04,,,0.38,WUHU21623XXSP,2013-07-26 14:58:00,
2013-07-26 10:03:00,51.4,47.9,29.90,WNW,292,4.7,4.7,88,0.04,,,0.38,WUHU21623XXSP,2013-07-26 15:03:00,
2013-07-26 10:08:00,51.4,47.9,29.90,NW,315,5.1,8.9,88,0.04,,,0.38,WUHU21623XXSP,2013-07-26 15:08:00,
2013-07-26 10:13:00,51.1,47.6,29.90,SE,135,0.0,8.9,88,0.04,,,0.38,WUHU21623XXSP,2013-07-26 15:13:00,
2013-07-26 10:18:00,50.9,47.4,29.91,NNW,337,0.0,8.9,88,0.04,,,0.38,WUHU21623XXSP,2013-07-26 15:18:00,
2013-07-26 10:23:00,50.9,47.4,29.91,NNE,22,4.5,9.2,88,0.02,,,0.38,WUHU21623XXSP,2013-07-26 15:23:00,
2013-07-26 10:28:00,50.2,46.7,29.91,WNW,292,3.4,9.2,88,0.02,,,0.38,WUHU21623XXSP,2013-07-26 15:28:00,
2013-07-26 10:33:00,50.2,46.7,29.92,NE,45,1.8,7.6,88,0.02,,,0.38,WUHU21623XXSP,2013-07-26 15:33:00,
2013-07-26 10:38:00,50.2,46.7,29.92,WNW,292,2.0,7.6,88,0.02,,,0.38,WUHU21623XXSP,2013-07-26 15:38:00,
2013-07-26 10:43:00,50.2,46.7,29.92,NNW,337,6.5,9.2,88,0.00,,,0.38,WUHU21623XXSP,2013-07-26 15:43:00,
2013-07-26 10:48:00,50.2,46.7,29.92,WNW,292,0.0,9.8,88,0.00,,,0.38,WUHU21623XXSP,2013-07-26 15:48:00,
2013-07-26 10:53:00,50.4,46.9,29.92,ENE,67,0.0,9.8,88,0.00,,,0.38,WUHU21623XXSP,2013-07-26 15:53:00,
2013-07-26 10:58:00,50.2,46.7,29.92,NNW,337,0.0,6.5,88,0.00,,,0.38,WUHU21623XXSP,2013-07-26 15:58:00,
2013-07-26 11:03:00,50.5,47.0,29.92,North,0,1.8,6.5,88,0.00,,,0.38,WUHU21623XXSP,2013-07-26 16:03:00,
2013-07-26 11:08:00,50.7,47.2,29.93,NNE,22,2.9,7.2,88,0.00,,,0.38,WUHU21623XXSP,2013-07-26 16:08:00,
2013-07-26 11:13:00,50.5,47.0,29.93,NW,315,0.7,8.5,88,0.00,,,0.38,WUHU21623XXSP,2013-07-26 16:13:00,
2013-07-26 11:18:00,50.2,46.7,29.93,NNW,337,4.9,8.5,88,0.00,,,0.38,WUHU21623XXSP,2013-07-26 16:18:00,
2013-07-26 11:23:00,50.0,46.5,29.93,WNW,292,2.5,13.2,88,0.02,,,0.40,WUHU21623XXSP,2013-07-26 16:23:00,
2013-07-26 11:28:00,50.2,46.7,29.93,NW,315,0.0,13.2,88,0.02,,,0.40,WUHU21623XXSP,2013-07-26 16:28:00,
2013-07-26 11:33:00,50.2,46.7,29.93,NW,315,0.0,6.5,88,0.02,,,0.40,WUHU21623XXSP,2013-07-26 16:33:00,
2013-07-26 11:38:00,50.4,46.9,29.94,WNW,292,1.6,6.5,88,0.02,,,0.40,WUHU21623XXSP,2013-07-26 16:38:00,
2013-07-26 11:43:00,50.2,46.7,29.94,NW,315,0.0,7.2,88,0.02,,,0.40,WUHU21623XXSP,2013-07-26 16:43:00,
2013-07-26 11:48:00,49.8,46.3,29.94,SE,135,0.0,7.4,88,0.02,,,0.40,WUHU21623XXSP,2013-07-26 16:48:00,
2013-07-26 11:53:00,49.8,46.3,29.94,West,270,4.3,8.5,88,0.02,,,0.40,WUHU21623XXSP,2013-07-26 16:53:00,
2013-07-26 11:58:00,49.6,46.2,29.95,West,270,7.4,8.5,88,0.02,,,0.40,WUHU21623XXSP,2013-07-26 16:58:00,
2013-07-26 12:03:00,49.6,46.2,29.95,NW,315,5.8,7.4,88,0.02,,,0.40,WUHU21623XXSP,2013-07-26 17:03:00,
2013-07-26 12:08:00,49.8,46.3,29.95,North,0,1.3,8.3,88,0.02,,,0.40,WUHU21623XXSP,2013-07-26 17:08:00,
2013-07-26 12:14:00,49.8,46.3,29.95,WNW,292,1.3,9.6,88,0.02,,,0.40,WUHU21623XXSP,2013-07-26 17:14:00,
2013-07-26 12:19:00,50.2,46.7,29.95,WNW,292,2.9,9.6,88,0.02,,,0.40,WUHU21623XXSP,2013-07-26 17:19:00,
2013-07-26 12:24:00,50.7,47.2,29.95,NW,315,1.8,7.2,88,0.00,,,0.40,WUHU21623XXSP,2013-07-26 17:24:00,
2013-07-26 12:29:00,50.7,47.2,29.95,WNW,292,3.6,12.1,88,0.00,,,0.40,WUHU21623XXSP,2013-07-26 17:29:00,
2013-07-26 12:34:00,50.7,47.2,29.95,NW,315,3.4,12.1,88,0.00,,,0.40,WUHU21623XXSP,2013-07-26 17:34:00,
2013-07-26 12:39:00,51.1,47.6,29.96,NNW,337,0.9,7.6,88,0.00,,,0.40,WUHU21623XXSP,2013-07-26 17:39:00,
2013-07-26 12:44:00,50.7,46.9,29.96,WNW,292,0.9,8.7,87,0.00,,,0.40,WUHU21623XXSP,2013-07-26 17:44:00,
2013-07-26 12:49:00,51.1,47.3,29.96,NNE,22,5.1,8.7,87,0.00,,,0.40,WUHU21623XXSP,2013-07-26 17:49:00,
2013-07-26 12:54:00,50.7,46.6,29.96,NW,315,2.0,7.2,86,0.00,,,0.40,WUHU21623XXSP,2013-07-26 17:54:00,
2013-07-26 12:59:00,51.6,47.5,29.96,SE,135,4.5,10.3,86,0.00,,,0.40,WUHU21623XXSP,2013-07-26 17:59:00,
2013-07-26 13:04:00,51.6,47.2,29.96,North,0,1.1,10.3,85,0.00,,,0.40,WUHU21623XXSP,2013-07-26 18:04:00,
2013-07-26 13:09:00,51.6,47.2,29.97,West,270,0.0,9.4,85,0.00,,,0.40,WUHU21623XXSP,2013-07-26 18:09:00,
2013-07-26 13:14:00,51.3,46.9,29.97,NE,45,0.0,5.6,85,0.00,,,0.40,WUHU21623XXSP,2013-07-26 18:14:00,
2013-07-26 13:19:00,51.3,46.9,29.97,NNW,337,8.1,8.1,85,0.00,,,0.40,WUHU21623XXSP,2013-07-26 18:19:00,
2013-07-26 13:24:00,51.6,46.9,29.97,NNW,337,2.7,8.1,84,0.00,,,0.40,WUHU21623XXSP,2013-07-26 18:24:00,
2013-07-26 13:29:00,52.3,47.6,29.97,NE,45,4.3,8.1,84,0.00,,,0.40,WUHU21623XXSP,2013-07-26 18:29:00,
2013-07-26 13:34:00,53.4,48.4,29.97,NNE,22,6.9,6.9,83,0.00,,,0.40,WUHU21623XXSP,2013-07-26 18:34:00,
2013-07-26 13:39:00,53.4,47.5,29.97,SE,135,0.0,8.3,80,0.00,,,0.40,WUHU21623XXSP,2013-07-26 18:39:00,
2013-07-26 13:44:00,52.9,47.2,29.97,North,0,2.7,8.3,81,0.00,,,0.40,WUHU21623XXSP,2013-07-26 18:44:00,
2013-07-26 13:49:00,52.2,46.2,29.98,North,0,2.9,6.5,80,0.00,,,0.40,WUHU21623XXSP,2013-07-26 18:49:00,
2013-07-26 13:54:00,52.0,46.7,29.98,WSW,247,4.7,7.2,82,0.00,,,0.40,WUHU21623XXSP,2013-07-26 18:54:00,
2013-07-26 13:59:00,52.3,47.0,29.98,NW,315,1.6,7.2,82,0.00,,,0.40,WUHU21623XXSP,2013-07-26 18:59:00,
2013-07-26 14:04:00,53.2,47.9,29.98,NNW,337,5.6,8.7,82,0.00,,,0.40,WUHU21623XXSP,2013-07-26 19:04:00,
2013-07-26 14:09:00,53.2,47.6,29.99,NW,315,0.0,10.5,81,0.00,,,0.40,WUHU21623XXSP,2013-07-26 19:09:00,
2013-07-26 14:14:00,54.3,48.9,29.99,NW,315,0.0,10.5,82,0.00,,,0.40,WUHU21623XXSP,2013-07-26 19:14:00,
2013-07-26 14:19:00,54.7,48.6,29.99,North,0,4.5,7.4,80,0.00,,,0.40,WUHU21623XXSP,2013-07-26 19:19:00,
2013-07-26 14:24:00,54.5,48.1,29.99,WNW,292,2.0,8.3,79,0.00,,,0.40,WUHU21623XXSP,2013-07-26 19:24:00,
2013-07-26 14:29:00,54.3,47.9,29.99,NW,315,2.9,8.3,79,0.00,,,0.40,WUHU21623XXSP,2013-07-26 19:29:00,
2013-07-26 14:34:00,53.8,48.1,29.99,West,270,0.0,6.3,81,0.00,,,0.40,WUHU21623XXSP,2013-07-26 19:34:00,
2013-07-26 14:39:00,52.9,47.6,29.99,WNW,292,2.7,6.3,82,0.00,,,0.40,WUHU21623XXSP,2013-07-26 19:39:00,
2013-07-26 14:44:00,52.5,47.5,29.99,NW,315,2.0,8.1,83,0.00,,,0.40,WUHU21623XXSP,2013-07-26 19:44:00,
2013-07-26 14:49:00,52.0,47.3,29.99,WNW,292,0.0,8.1,84,0.00,,,0.40,WUHU21623XXSP,2013-07-26 19:49:00,
2013-07-26 14:54:00,51.6,46.9,30.00,WNW,292,4.5,7.4,84,0.00,,,0.40,WUHU21623XXSP,2013-07-26 19:54:00,
2013-07-26 14:59:00,51.4,46.4,29.99,WNW,292,6.9,12.8,83,0.00,,,0.40,WUHU21623XXSP,2013-07-26 19:59:00,
2013-07-26 15:04:00,51.6,46.6,29.99,North,0,3.8,12.8,83,0.00,,,0.40,WUHU21623XXSP,2013-07-26 20:04:00,
2013-07-26 15:09:00,52.2,46.5,29.99,WNW,292,0.0,10.1,81,0.00,,,0.40,WUHU21623XXSP,2013-07-26 20:09:00,
2013-07-26 15:14:00,52.5,46.9,29.99,NW,315,1.3,7.8,81,0.00,,,0.40,WUHU21623XXSP,2013-07-26 20:14:00,
2013-07-26 15:19:00,53.2,47.6,29.99,West,270,2.9,7.4,81,0.00,,,0.40,WUHU21623XXSP,2013-07-26 20:19:00,
2013-07-26 15:24:00,53.2,46.6,29.99,NW,315,7.2,10.5,78,0.00,,,0.40,WUHU21623XXSP,2013-07-26 20:24:00,
2013-07-26 15:29:00,52.2,45.9,29.99,WNW,292,4.5,10.5,79,0.00,,,0.40,WUHU21623XXSP,2013-07-26 20:29:00,
2013-07-26 15:34:00,51.6,45.7,29.99,West,270,3.4,10.1,80,0.00,,,0.40,WUHU21623XXSP,2013-07-26 20:34:00,
2013-07-26 15:39:00,51.6,45.7,29.99,NNW,337,5.6,10.1,80,0.00,,,0.40,WUHU21623XXSP,2013-07-26 20:39:00,
2013-07-26 15:44:00,52.9,46.6,30.00,North,0,1.8,10.1,79,0.00,,,0.40,WUHU21623XXSP,2013-07-26 20:44:00,
2013-07-26 15:49:00,52.9,45.9,29.99,NE,45,13.0,13.0,77,0.00,,,0.40,WUHU21623XXSP,2013-07-26 20:49:00,
2013-07-26 15:54:00,51.8,45.2,29.99,West,270,2.9,13.0,78,0.00,,,0.40,WUHU21623XXSP,2013-07-26 20:54:00,
2013-07-26 15:59:00,51.8,45.2,29.99,WSW,247,6.5,8.9,78,0.00,,,0.40,WUHU21623XXSP,2013-07-26 20:59:00,
2013-07-26 16:04:00,52.3,45.7,29.99,NNW,337,8.5,12.1,78,0.00,,,0.40,WUHU21623XXSP,2013-07-26 21:04:00,
2013-07-26 16:09:00,52.2,45.2,30.00,WNW,292,0.0,12.1,77,0.00,,,0.40,WUHU21623XXSP,2013-07-26 21:09:00,
2013-07-26 16:14:00,50.7,45.1,30.00,NW,314,3.9,9.4,81,0.00,,,0.40,WUHU21623XXSP,2013-07-26 21:14:00,
2013-07-26 16:19:00,51.1,45.4,30.00,North,0,2.0,28.4,81,0.00,,,0.40,WUHU21623XXSP,2013-07-26 21:19:00,
2013-07-26 16:24:00,51.1,45.1,30.00,NE,45,4.9,28.4,80,0.00,,,0.40,WUHU21623XXSP,2013-07-26 21:24:00,
2013-07-26 16:29:00,50.4,44.4,30.01,WNW,292,8.7,8.7,80,0.00,,,0.40,WUHU21623XXSP,2013-07-26 21:29:00,
2013-07-26 16:34:00,50.4,44.4,30.01,NNE,22,3.6,13.4,80,0.00,,,0.40,WUHU21623XXSP,2013-07-26 21:34:00,
2013-07-26 16:39:00,51.4,45.2,30.01,West,270,6.9,13.4,79,0.00,,,0.40,WUHU21623XXSP,2013-07-26 21:39:00,
2013-07-26 16:44:00,51.4,44.8,30.01,NW,315,0.0,8.7,78,0.00,,,0.40,WUHU21623XXSP,2013-07-26 21:44:00,
2013-07-26 16:49:00,51.1,44.5,30.01,West,270,2.2,8.7,78,0.00,,,0.40,WUHU21623XXSP,2013-07-26 21:49:00,
2013-07-26 16:54:00,50.9,43.9,30.01,NW,315,2.0,8.9,77,0.00,,,0.40,WUHU21623XXSP,2013-07-26 21:54:00,
2013-07-26 16:59:00,51.6,44.7,30.01,WNW,292,0.0,8.9,77,0.00,,,0.40,WUHU21623XXSP,2013-07-26 21:59:00,
2013-07-26 17:04:00,51.6,44.7,30.01,WSW,247,0.0,8.9,77,0.00,,,0.40,WUHU21623XXSP,2013-07-26 22:04:00,
2013-07-26 17:09:00,52.5,45.2,30.01,NW,315,1.1,8.7,76,0.00,,,0.40,WUHU21623XXSP,2013-07-26 22:09:00,
2013-07-26 17:14:00,52.0,44.3,30.01,WNW,292,0.0,8.7,75,0.00,,,0.40,WUHU21623XXSP,2013-07-26 22:14:00,
2013-07-26 17:19:00,51.3,44.0,30.01,WNW,292,2.7,7.4,76,0.00,,,0.40,WUHU21623XXSP,2013-07-26 22:19:00,
2013-07-26 17:24:00,50.9,44.3,30.01,NW,315,4.7,11.0,78,0.00,,,0.40,WUHU21623XXSP,2013-07-26 22:24:00,
2013-07-26 17:29:00,51.4,44.5,30.01,WNW,292,1.1,11.0,77,0.00,,,0.40,WUHU21623XXSP,2013-07-26 22:29:00,
2013-07-26 17:34:00,51.3,44.0,30.01,NW,315,6.3,8.5,76,0.00,,,0.40,WUHU21623XXSP,2013-07-26 22:34:00,
2013-07-26 17:39:00,51.1,44.1,30.01,West,270,0.0,8.5,77,0.00,,,0.40,WUHU21623XXSP,2013-07-26 22:39:00,
2013-07-26 17:44:00,51.3,44.6,30.01,West,270,0.0,6.3,78,0.00,,,0.40,WUHU21623XXSP,2013-07-26 22:44:00,
2013-07-26 17:49:00,51.4,44.5,30.01,NNW,337,3.1,6.9,77,0.00,,,0.40,WUHU21623XXSP,2013-07-26 22:49:00,
2013-07-26 17:54:00,52.2,45.2,30.01,West,270,4.0,7.8,77,0.00,,,0.40,WUHU21623XXSP,2013-07-26 22:54:00,
2013-07-26 17:59:00,52.3,45.4,30.01,NW,315,6.3,10.7,77,0.00,,,0.40,WUHU21623XXSP,2013-07-26 22:59:00,
2013-07-26 18:04:00,52.3,45.4,30.01,NNW,337,7.6,10.7,77,0.00,,,0.40,WUHU21623XXSP,2013-07-26 23:04:00,
2013-07-26 18:09:00,52.9,45.5,30.01,NNW,337,6.3,8.7,76,0.00,,,0.40,WUHU21623XXSP,2013-07-26 23:09:00,
2013-07-26 18:14:00,53.1,45.7,30.01,NW,315,4.5,9.2,76,0.00,,,0.40,WUHU21623XXSP,2013-07-26 23:14:00,
2013-07-26 18:19:00,52.7,45.7,30.01,North,0,2.7,9.2,77,0.00,,,0.40,WUHU21623XXSP,2013-07-26 23:19:00,
2013-07-26 18:24:00,52.3,45.0,30.01,NNW,337,3.6,8.3,76,0.00,,,0.40,WUHU21623XXSP,2013-07-26 23:24:00,
2013-07-26 18:29:00,52.0,45.2,30.01,NNW,337,4.5,9.8,77,0.00,,,0.40,WUHU21623XXSP,2013-07-26 23:29:00,
2013-07-26 18:34:00,51.6,44.7,30.01,NNW,337,0.0,9.8,77,0.00,,,0.40,WUHU21623XXSP,2013-07-26 23:34:00,
2013-07-26 18:39:00,51.4,44.8,30.01,NW,315,0.0,6.5,78,0.00,,,0.00,WUHU21623XXSP,2013-07-26 23:39:00,
2013-07-26 18:44:00,51.1,44.9,30.01,NNW,337,4.5,9.2,79,0.00,,,0.00,WUHU21623XXSP,2013-07-26 23:44:00,
2013-07-26 18:55:00,51.1,44.8,30.02,NW,315,4.3,9.2,79,0.00,,,0.00,WUHU21623XXSP,2013-07-26 23:55:00,
2013-07-26 19:00:00,50.9,44.6,30.02,NW,315,0.0,4.5,79,0.00,,,0.00,WUHU21623XXSP,2013-07-27 00:00:00,
2013-07-26 19:05:00,50.7,44.8,30.02,NW,315,0.0,6.7,80,0.00,,,0.00,WUHU21623XXSP,2013-07-27 00:05:00,
2013-07-26 19:10:00,50.7,44.8,30.02,NNW,337,4.9,8.3,80,0.00,,,0.00,WUHU21623XXSP,2013-07-27 00:10:00,
2013-07-26 19:15:00,50.5,44.6,30.02,North,0,2.0,8.3,80,0.00,,,0.00,WUHU21623XXSP,2013-07-27 00:15:00,
2013-07-26 19:20:00,50.4,44.4,30.02,NW,315,0.0,8.5,80,0.00,,,0.00,WUHU21623XXSP,2013-07-27 00:20:00,
2013-07-26 19:25:00,50.4,44.4,30.02,West,270,4.0,8.5,80,0.00,,,0.00,WUHU21623XXSP,2013-07-27 00:25:00,
2013-07-26 19:30:00,50.4,44.7,30.02,NW,315,1.8,7.2,81,0.00,,,0.00,WUHU21623XXSP,2013-07-27 00:30:00,
2013-07-26 19:35:00,50.2,44.9,30.02,NNW,337,0.0,5.6,82,0.00,,,0.00,WUHU21623XXSP,2013-07-27 00:35:00,
2013-07-26 19:40:00,50.2,44.9,30.02,NW,315,0.0,4.7,82,0.00,,,0.00,WUHU21623XXSP,2013-07-27 00:40:00,
2013-07-26 19:45:00,50.0,44.7,30.02,NNW,337,2.2,7.2,82,0.00,,,0.00,WUHU21623XXSP,2013-07-27 00:45:00,
2013-07-26 19:50:00,49.8,44.5,30.02,NNW,337,1.6,7.2,82,0.00,,,0.00,WUHU21623XXSP,2013-07-27 00:50:00,
2013-07-26 19:55:00,49.8,44.5,30.02,NNW,337,5.6,5.8,82,0.00,,,0.00,WUHU21623XXSP,2013-07-27 00:55:00,
2013-07-26 20:00:00,49.6,44.3,30.03,NW,315,2.7,6.3,82,0.00,,,0.00,WUHU21623XXSP,2013-07-27 01:00:00,
2013-07-26 20:05:00,49.6,44.6,30.03,WNW,292,0.0,6.3,83,0.00,,,0.00,WUHU21623XXSP,2013-07-27 01:05:00,
2013-07-26 20:10:00,49.3,44.3,30.02,WNW,292,0.0,5.8,83,0.00,,,0.00,WUHU21623XXSP,2013-07-27 01:10:00,
2013-07-26 20:15:00,49.3,44.6,30.03,WNW,292,1.8,4.7,84,0.00,,,0.00,WUHU21623XXSP,2013-07-27 01:15:00,
2013-07-26 20:20:00,49.1,44.4,30.03,NW,315,0.7,4.3,84,0.00,,,0.00,WUHU21623XXSP,2013-07-27 01:20:00,
2013-07-26 20:25:00,49.1,44.4,30.03,NNW,337,0.9,5.6,84,0.00,,,0.00,WUHU21623XXSP,2013-07-27 01:25:00,
2013-07-26 20:30:00,49.1,44.4,30.02,WNW,292,0.0,5.6,84,0.00,,,0.00,WUHU21623XXSP,2013-07-27 01:30:00,
2013-07-26 20:35:00,49.1,44.1,30.03,WNW,292,0.0,6.0,83,0.00,,,0.00,WUHU21623XXSP,2013-07-27 01:35:00,
2013-07-26 20:40:00,49.1,44.4,30.02,NW,315,4.3,6.0,84,0.00,,,0.00,WUHU21623XXSP,2013-07-27 01:40:00,
2013-07-26 20:45:00,48.9,44.2,30.02,NW,315,2.2,6.3,84,0.00,,,0.00,WUHU21623XXSP,2013-07-27 01:45:00,
2013-07-26 20:50:00,48.7,44.1,30.03,NW,315,0.0,6.3,84,0.00,,,0.00,WUHU21623XXSP,2013-07-27 01:50:00,
2013-07-26 20:55:00,48.4,43.7,30.02,NNW,337,0.0,6.3,84,0.00,,,0.00,WUHU21623XXSP,2013-07-27 01:55:00,
2013-07-26 21:00:00,48.2,43.6,30.02,WNW,292,3.4,6.3,84,0.00,,,0.00,WUHU21623XXSP,2013-07-27 02:00:00,
2013-07-26 21:05:00,48.2,43.6,30.03,WNW,292,0.0,7.8,84,0.00,,,0.00,WUHU21623XXSP,2013-07-27 02:05:00,
2013-07-26 21:10:00,48.0,43.4,30.03,NW,315,1.1,9.2,84,0.00,,,0.00,WUHU21623XXSP,2013-07-27 02:10:00,
2013-07-26 21:15:00,48.0,43.4,30.03,NW,315,0.0,9.2,84,0.00,,,0.00,WUHU21623XXSP,2013-07-27 02:15:00,
2013-07-26 21:20:00,48.0,43.7,30.03,NNW,337,4.3,5.1,85,0.00,,,0.00,WUHU21623XXSP,2013-07-27 02:20:00,
2013-07-26 21:25:00,48.0,43.4,30.03,NW,315,2.2,5.4,84,0.00,,,0.00,WUHU21623XXSP,2013-07-27 02:25:00,
2013-07-26 21:30:00,47.8,43.2,30.03,NW,315,0.0,5.8,84,0.00,,,0.00,WUHU21623XXSP,2013-07-27 02:30:00,
2013-07-26 21:35:00,47.8,43.5,30.03,WNW,292,0.0,5.8,85,0.00,,,0.00,WUHU21623XXSP,2013-07-27 02:35:00,
2013-07-26 21:40:00,47.8,43.5,30.03,NNW,337,1.6,4.7,85,0.00,,,0.00,WUHU21623XXSP,2013-07-27 02:40:00,
2013-07-26 21:45:00,47.7,43.4,30.03,NW,315,0.0,4.7,85,0.00,,,0.00,WUHU21623XXSP,2013-07-27 02:45:00,
2013-07-26 21:50:00,47.7,43.4,30.03,WNW,292,0.0,3.4,85,0.00,,,0.00,WUHU21623XXSP,2013-07-27 02:50:00,
2013-07-26 21:55:00,47.5,43.2,30.03,NW,315,0.7,3.8,85,0.00,,,0.00,WUHU21623XXSP,2013-07-27 02:55:00,
2013-07-26 22:00:00,47.3,43.0,30.03,NW,315,0.0,3.8,85,0.00,,,0.00,WUHU21623XXSP,2013-07-27 03:00:00,
2013-07-26 22:05:00,47.5,43.2,30.02,NNW,337,0.9,5.6,85,0.00,,,0.00,WUHU21623XXSP,2013-07-27 03:05:00,
2013-07-26 22:10:00,47.3,43.0,30.02,NW,315,2.7,6.7,85,0.00,,,0.00,WUHU21623XXSP,2013-07-27 03:10:00,
2013-07-26 22:15:00,47.3,43.0,30.02,WNW,292,0.0,6.7,85,0.00,,,0.00,WUHU21623XXSP,2013-07-27 03:15:00,
2013-07-26 22:20:00,47.3,43.0,30.02,WNW,292,2.5,6.0,85,0.00,,,0.00,WUHU21623XXSP,2013-07-27 03:20:00,
2013-07-26 22:25:00,47.1,42.9,30.02,NW,315,1.8,6.9,85,0.00,,,0.00,WUHU21623XXSP,2013-07-27 03:25:00,
2013-07-26 22:30:00,47.1,42.9,30.02,NW,315,1.6,6.9,85,0.00,,,0.00,WUHU21623XXSP,2013-07-27 03:30:00,
2013-07-26 22:35:00,47.1,42.9,30.02,NW,315,3.1,4.3,85,0.00,,,0.00,WUHU21623XXSP,2013-07-27 03:35:00,
2013-07-26 22:40:00,47.1,42.9,30.01,NW,315,0.4,4.3,85,0.00,,,0.00,WUHU21623XXSP,2013-07-27 03:40:00,
2013-07-26 22:45:00,47.1,42.9,30.01,NW,315,4.5,6.5,85,0.00,,,0.00,WUHU21623XXSP,2013-07-27 03:45:00,
2013-07-26 22:50:00,47.1,42.9,30.01,NW,315,3.1,6.5,85,0.00,,,0.00,WUHU21623XXSP,2013-07-27 03:50:00,
2013-07-26 22:55:00,47.1,42.9,30.01,NW,315,1.6,6.3,85,0.00,,,0.00,WUHU21623XXSP,2013-07-27 03:55:00,
2013-07-26 23:00:00,46.9,42.7,30.01,NW,315,2.0,6.3,85,0.00,,,0.00,WUHU21623XXSP,2013-07-27 04:00:00,
2013-07-26 23:01:00,46.9,42.7,30.01,NW,315,1.1,6.3,85,0.00,,,0.00,WUHU21623XXSP,2013-07-27 04:01:00,
2013-07-26 23:02:00,46.9,42.7,30.01,NW,315,0.0,5.4,85,0.00,,,0.00,WUHU21623XXSP,2013-07-27 04:02:00,
2013-07-26 23:07:00,46.9,42.7,30.00,NW,315,2.9,7.6,85,0.00,,,0.00,WUHU21623XXSP,2013-07-27 04:07:00,
2013-07-26 23:12:00,47.1,42.9,30.00,NNW,337,2.7,7.6,85,0.00,,,0.00,WUHU21623XXSP,2013-07-27 04:12:00,
2013-07-26 23:17:00,47.1,42.9,30.00,NW,315,2.5,5.1,85,0.00,,,0.00,WUHU21623XXSP,2013-07-27 04:17:00,
2013-07-26 23:22:00,47.1,42.9,30.00,NNW,337,4.0,5.6,85,0.00,,,0.00,WUHU21623XXSP,2013-07-27 04:22:00,
2013-07-26 23:27:00,47.3,43.0,30.00,WNW,292,1.6,5.6,85,0.00,,,0.00,WUHU21623XXSP,2013-07-27 04:27:00,
2013-07-26 23:32:00,47.5,43.2,29.99,NW,315,6.0,6.0,85,0.00,,,0.00,WUHU21623XXSP,2013-07-27 04:32:00,
2013-07-26 23:37:00,47.3,43.0,29.99,NW,315,5.1,6.0,85,0.00,,,0.00,WUHU21623XXSP,2013-07-27 04:37:00,
2013-07-26 23:42:00,47.3,43.0,29.99,NW,315,4.7,7.6,85,0.00,,,0.00,WUHU21623XXSP,2013-07-27 04:42:00,
2013-07-26 23:47:00,47.3,43.0,29.99,NW,315,4.5,7.6,85,0.00,,,0.00,WUHU21623XXSP,2013-07-27 04:47:00,
2013-07-26 23:52:00,47.1,42.9,29.99,WNW,292,4.7,6.9,85,0.00,,,0.00,WUHU21623XXSP,2013-07-27 04:52:00,
2013-07-26 23:57:00,47.1,43.2,29.99,NW,315,4.5,6.9,86,0.00,,,0.00,WUHU21623XXSP,2013-07-27 04:57:00,